Regional Weather Roundup
Issued by NWS

Home | Current Version | Previous Version | Graphics & Text | Print | Product List | Glossary On
Versions: 1 2 3 4 5 6 7 8 9 10 11 12 13 14 15 16 17 18 19 20 21 22 23 24 25 26 27 28 29 30 31 32 33 34 35 36 37 38 39 40 41 42 43 44 45 46 47 48 49 50
000
ASUS43 KLSX 180159
RWRMO

WEATHER SUMMARY FOR MISSOURI
NATIONAL WEATHER SERVICE SPRINGFIELD MO
900 PM CDT THU APR 17 2014

NOTE: "FAIR" INDICATES FEW OR NO CLOUDS BELOW 12,000 FEET WITH NO
       SIGNIFICANT WEATHER AND/OR OBSTRUCTIONS TO VISIBILITY.
       CURRENT SKY AND/OR WEATHER CONDITIONS ARE NOT AVAILABLE FOR
       CHILLICOTHE AND FARMINGTON.

MOZ001>031-035>038-043-044-053-054-180300-
...NORTHERN AND WESTERN MISSOURI...

CITY           SKY/WX    TMP DP  RH WIND       PRES   REMARKS
KANSAS CTY INT CLEAR     43  32  65 SE6       30.28R
KANSAS C DTWN  CLEAR     47  32  56 E3        30.28R
LEE`S SUMMIT   PTCLDY    43  34  70 SE3       30.29R
ST JOSEPH      CLEAR     46  32  58 S7        30.28R
CHILLICOTHE      N/A     44  34  67 CALM      30.30R
KIRKSVILLE     PTCLDY    41  33  73 W3        30.29R

$$
MOZ066>068-077>081-088>096-101>105-180300-
...SOUTHWEST MISSOURI...

CITY           SKY/WX    TMP DP  RH WIND       PRES   REMARKS
SPRINGFIELD    CLOUDY    53  40  61 N10       30.23R
JOPLIN         CLOUDY    49  42  77 N3        30.25S

$$
MOZ032>034-039>042-045>050-055>058-069>072-180300-
...CENTRAL MISSOURI...

CITY           SKY/WX    TMP DP  RH WIND       PRES   REMARKS
COLUMBIA       CLOUDY    48  39  71 N6        30.26S
JEFFERSON CITY CLOUDY    50  38  63 NW5       30.27R
ROLLA          CLOUDY    51  40  65 N10       30.24R
SEDALIA        MOCLDY    45  41  86 N5        30.27F
OSAGE BEACH    CLOUDY    48  36  61 N6        30.28R

$$
MOZ051-052-059>065-180300-
...EAST CENTRAL MISSOURI...

CITY           SKY/WX    TMP DP  RH WIND       PRES   REMARKS
ST LOUIS INTL  MOCLDY    57  40  52 N9        30.25R
SPIRIT OF STL  PTCLDY    54  41  61 N6        30.25R
ST CHARLES     MOCLDY    54  40  59 N7        30.25R

$$
MOZ072>076-082>087-097>100-106>115-180300-
...SOUTH CENTRAL AND SOUTHEAST MISSOURI...

CITY           SKY/WX    TMP DP  RH WIND       PRES   REMARKS
CAPE GIRARDEAU PTCLDY    53  47  79 SE6       30.24R
FARMINGTON     CLEAR     55  36  47 SE5       30.24R
POPLAR BLUFF   MOCLDY    59  43  55 S6        30.23R
WEST PLAINS    MOCLDY    58  35  42 SE5       30.22R

$$



USA.gov is the U.S. government's official web portal to all federal, state and local government web resources and services.